Regional Weather Roundup
Issued by NWS Mobile, AL

Home | Current Version | Previous Version | Text Only | Print | Product List | Glossary On
Versions: 1 2 3 4 5 6 7 8 9 10 11 12 13 14 15 16 17 18 19 20 21 22 23 24 25 26 27
000
ASUS44 KMOB 241212
RWRMOB
REGIONAL WEATHER ROUNDUP
NATIONAL WEATHER SERVICE MOBILE AL
700 AM CDT TUE APR 24 2018

NOTE: "FAIR" INDICATES FEW OR NO CLOUDS BELOW 12,000 FEET WITH NO
      SIGNIFICANT WEATHER AND/OR OBSTRUCTIONS TO VISIBILITY.

  * THESE STATIONS ARE PART OF THE UNIVERSITY OF SOUTH ALABAMA
    MESONET AND ARE NOT UNDER NWS OR FAA QUALITY CONTROL.

ALZ061>064-241300-
COASTAL ALABAMA

CITY           SKY/WX    TMP DP  RH WIND       PRES   REMARKS
MOBILE REG APT FAIR      54  52  93 W3        29.99R
6HR MIN TEMP:  51; 6HR MAX TEMP:  57;

BROOKLEY FIELD FAIR      57  55  93 CALM      30.00R
6HR MIN TEMP:  55; 6HR MAX TEMP:  60;

USA CAMPUS*    NOT AVBL
DOG RIVER*     NOT AVBL


CITY           SKY/WX    TMP DP  RH WIND       PRES   REMARKS
GULF SHORES    FAIR      52  52 100 W3        29.99R

$$

ALZ051>060-241300-
INTERIOR SOUTHWEST AND SOUTH CENTRAL ALABAMA

CITY           SKY/WX    TMP DP  RH WIND       PRES   REMARKS
GREENVILLE     CLOUDY    53  50  89 CALM      29.95R
6HR MIN TEMP:  51; 6HR MAX TEMP:  56;

EVERGREEN      FAIR      50  48  93 CALM      29.97R
6HR MIN TEMP:  49; 6HR MAX TEMP:  57;

ATMORE*          N/A    N/A N/A N/A W3        30.68R
ANDALUSIA/OPP  FAIR      55  51  86 W3        29.96R
6HR MIN TEMP:  54; 6HR MAX TEMP:  60;

ANDALUSIA*       N/A     52  52 100 W5        29.96R
FLORALA APT    FAIR      54  51  90 CALM      29.99R
6HR MIN TEMP:  51; 6HR MAX TEMP:  57;

FLORALA*       NOT AVBL

$$

FLZ001>006-241300-
WESTERN FLORIDA PANHANDLE

CITY           SKY/WX    TMP DP  RH WIND       PRES   REMARKS
PENSACOLA      FAIR      58  52  80 W7        29.98R
6HR MIN TEMP:  56; 6HR MAX TEMP:  58;

NAS PENSACOLA  FAIR      56  54  93 CALM      29.98R
6HR MIN TEMP:  50; 6HR MAX TEMP:  59;

MILTON         FAIR      53  53 100 W6        29.98R
6HR MIN TEMP:  49; 6HR MAX TEMP:  54;

WHTNG S FIELD  FAIR      52  52 100 W3        29.98R
6HR MIN TEMP:  50; 6HR MAX TEMP:  54;



CITY           SKY/WX    TMP DP  RH WIND       PRES   REMARKS
JAY*           NOT AVBL
DUKE FIELD     FAIR      54  51  89 W3        29.97R
CRESTVIEW      FAIR      52  50  93 CALM      29.99R
6HR MIN TEMP:  49; 6HR MAX TEMP:  58;

VALPARAISO     PTCLDY    55  51  88 CALM      29.97R
6HR MIN TEMP:  52; 6HR MAX TEMP:  58;

DESTIN         FAIR      62  52  69 VRB3      29.98R
6HR MIN TEMP:  61; 6HR MAX TEMP:  65;


$$

MSZ076-079-241300-
INTERIOR SOUTHEAST MISSISSIPPI

CITY           SKY/WX    TMP DP  RH WIND       PRES   REMARKS
LEAKESVILLE*   NOT AVBL
AGRICOLA*        N/A     52  52 100 SW3       29.98R

$$

MARINE OBSERVATIONS

STATION/POSITION TIME  TEMP    WIND        PRES    WAVE
                       AIR SEA DIR/SP/G            HT/PER
                 (UTC) (F)     (DEG/KT/KT) (MB)    (FT/S)
PETIT BOIS ISLND 1136   64     300/ 14/ 16 1016.2R
GRAND BAY        1045   56     300/  4     1016.0S
KATRINA CUT      1130   65     280/ 12     1015.6R
CEDAR POINT      1130   62     310/  6       N/A
E DAUPHIN ISLAND 1200   64     270/  6/  7 1015.5R
MIDDLE BAY LIGHT 1130   61     280/  6     1015.2R
USCG MOBILE BAY  1136   56 69  250/  2/  3 1015.3R
STATE DOCKS      1136   57 65              1015.1R
MEAHER PARK      1130   57        CALM     1014.9F
WEEKS BAY        1045   54                 1015.0S
FORT MORGAN      1136   64     310/  9/ 11   N/A
12 S ORANGE BCH  1150   65     310/ 10/ 14 1015.4R   2/ 6
PENSACOLA BAY    1136   58 70  310/  3/  5 1015.3R
64 S DAUPHIN ISL 1150      72  290/  6/  8 1015.9R   2/ 5
67 S FORT MORGAN 1130   67                 1015.2S

$$

SELECTED LOCATIONS ACROSS THE REGION

CITY           SKY/WX    TMP DP  RH WIND       PRES   REMARKS
NEW ORLEANS    FAIR      60  57  89 W6        30.02R FOG
GULFPORT       FAIR      57  53  86 W7        29.99R
PASCAGOULA AP  FAIR      53  51  93 CALM      29.99R
PASCAGOULA*    NOT AVBL
HATTIESBURG    FAIR      55  54  96 W5        29.99R
LAUREL         FAIR      52  51  97 CALM      29.99R
MERIDIAN       MOCLDY    58  54  86 CALM      29.96R
JACKSON        MOCLDY    59  56  89 W5        29.97R
MONTGOMERY     CLOUDY    56  54  93 SW7       29.95R
TROY           FAIR      52  52 100 SW3       29.96R
ASHFORD*         N/A     52  52 100 W5        29.96R
DOTHAN         FAIR      56  51  84 W8        29.98R
PANAMA CITY    FAIR      56  52  86 W6        29.97R

$$





USA.gov is the U.S. government's official web portal to all federal, state and local government web resources and services.